Location: Rounton
(54.4000°N, 1.3500°W)
Time: 01:52:26
(UTC+00:00)

Explorer 7 - Pass Details

Date: 09 December 2021
Orbit: 483 x 674 km, 50.3° (Epoch: 18 January)

Event Time Altitude Azimuth Distance (km) Brightness Sun altitude
Exits shadow 07:12:42 - 263° (W) 2,244 9.4 -8.2°
Reaches altitude 10° 07:13:41 10° 260° (W) 1,864 9.1 -8.1°
Maximum altitude 07:17:44 46° 187° (S) 736 7.7 -7.6°
Drops below altitude 10° 07:21:33 10° 114° (ESE) 1,755 11.2 -7.1°
Sets 07:23:45 0° 108° (ESE) 2,615 12.3 -6.8°
